Regional Weather Roundup
Issued by NWS

Home | Current Version | Previous Version | Graphics & Text | Print | Product List | Glossary On
Versions: 1 2 3 4 5 6 7 8 9 10 11 12 13 14 15 16 17 18 19 20 21 22 23 24 25 26 27 28 29 30 31 32 33 34 35 36 37 38 39 40 41 42 43 44 45 46 47 48 49 50
000
ASUS43 KMKX 121611
RWRWI

WISCONSIN REGIONAL WEATHER ROUNDUP
NATIONAL WEATHER SERVICE MILWAUKEE/SULLIVAN WI
1100 AM CDT SAT JUL 12 2014

NOTE: "FAIR" INDICATES FEW OR NO CLOUDS BELOW 12,000 FEET WITH NO
SIGNIFICANT WEATHER AND/OR OBSTRUCTIONS TO VISIBILITY.

WIZ001-002-006>008-014>016-023>028-121700-
NORTHWEST WISCONSIN

CITY           SKY/WX    TMP DP  RH WIND       PRES   REMARKS
SUPERIOR ARPT  PTSUNNY   70  59  68 SE3       29.99S
ASHLAND        PTSUNNY   72  59  63 NE6       30.00F
HAYWARD        PTSUNNY   75  63  66 NE3       29.99F
SIREN          CLOUDY    73  66  77 N6        29.99S
RICE LAKE      CLOUDY    72  68  88 CALM      30.01S
LADYSMITH      CLOUDY    71  69  90 CALM      30.02S FOG
EAU CLAIRE     CLOUDY    73  69  87 W5        29.98F
MENOMONIE      CLOUDY    73  69  89 SW5       29.99F
NEW RICHMOND   CLOUDY    73  71  91 CALM      29.99S FOG
OSCEOLA        CLOUDY    73  72  98 N3        30.01S FOG
$$

WIZ003>005-009-010-017-018-121700-
NORTH CENTRAL WISCONSIN

CITY           SKY/WX    TMP DP  RH WIND       PRES   REMARKS
WOODRUFF       PTSUNNY   77  68  72 W3        30.00F
RHINELANDER    PTSUNNY   73  64  73 CALM      30.02F
EAGLE RIVER    PTSUNNY   74  62  66 SW3       30.00F
LAND O LAKES   PTSUNNY   77  62  59 SW3       30.01S
PHILLIPS       CLOUDY    71  67  88 CALM      30.00F
TOMAHAWK       CLOUDY    71  66  82 CALM      30.02S
MEDFORD        CLOUDY    73  68  86 CALM      30.01F
MERRILL        CLOUDY    75  69  80 NW3       30.00S
$$

WIZ029-030-035-036-043>047-121700-
CENTRAL WISCONSIN

CITY           SKY/WX    TMP DP  RH WIND       PRES   REMARKS
WAUSAU         CLOUDY    74  68  81 W6        29.99F
MOSINEE        MOSUNNY   73  70  88 NW5       30.01F
MARSHFIELD     CLOUDY    73  69  87 CALM      30.00F
STEVENS POINT  CLOUDY    71  65  83 CALM      30.00F
WAUPACA        CLOUDY    77  68  73 CALM      29.99F
WAUTOMA        CLOUDY    76  68  76 CALM      29.99F
WISC RAPIDS    CLOUDY    75  67  76 CALM      30.01S
CAMP DOUGLAS   NOT AVBL
$$

WIZ011>013-019>022-031-037>040-048>050-121700-
NORTHEAST WISCONSIN

CITY           SKY/WX    TMP DP  RH WIND       PRES   REMARKS
ANTIGO         CLOUDY    73  68  83 CALM      30.01F
STURGEON BAY   CLOUDY    73  64  73 S5        30.00F
GREEN BAY      CLOUDY    76  67  73 CALM      29.98F
MANITOWOC      CLOUDY    69  62  78 SE5       30.00F
APPLETON       PTSUNNY   75  64  69 CALM      29.99F
CLINTONVILLE   CLOUDY    72  64  78 SW3       29.99F
OSHKOSH        CLOUDY    77  67  71 CALM      29.99F
$$

WIZ032>034-041-042-053>061-121700-
SOUTHWEST WISCONSIN

CITY           SKY/WX    TMP DP  RH WIND       PRES   REMARKS
LA CROSSE      CLOUDY    76  69  79 N5        29.97F
SPARTA         CLOUDY    74  66  78 N3        29.98F
VIROQUA        FAIR      73  71  95 N7        29.98F
BOSCOBEL       CLOUDY    77  69  76 CALM      29.99R
PRAIRIE DU CHI PTSUNNY   76  68  75 S6        29.98S
PLATTEVILLE    FAIR      77  71  82 CALM      30.02R
$$

WIZ056-057-062-063-064-067-068-121700-
SOUTH CENTRAL WISCONSIN

CITY           SKY/WX    TMP DP  RH WIND       PRES   REMARKS
BARABOO/DELLS  CLOUDY    73  66  77 NE7       29.96F
LONE ROCK      CLOUDY    79  69  71 CALM      29.98R HX  81
WATERTOWN      CLOUDY    74  68  80 N5        29.98F
MADISON        CLOUDY    76  67  73 NE12      29.96F
MIDDLETON      FAIR      76  67  76 E13       29.94F
MONROE         CLOUDY    72  68  88 CALM      30.00R
JANESVILLE     PTSUNNY   75  66  73 NE8       29.96F
$$

WIZ051-052-058>065-066-070>072-121700-
SOUTHEAST WISCONSIN

CITY           SKY/WX    TMP DP  RH WIND       PRES   REMARKS
MILWAUKEE      CLOUDY    76  66  71 SW3       30.00F
WAUKESHA       MOSUNNY   72  66  83 CALM      30.00F
MILWAUKEE/TIMM MOSUNNY   73  64  73 S5        30.01F
RACINE         CLOUDY    76  68  76 S5        30.02F
BURLINGTON     CLOUDY    73  67  80 CALM      29.99F
KENOSHA        CLOUDY    74  70  87 S9        30.01F
FOND DU LAC    CLOUDY    75  65  70 CALM      29.99F
SHEBOYGAN      CLOUDY    73  64  73 S3        30.00F
WEST BEND      CLOUDY    75  63  64 CALM      30.00F
JUNEAU         CLOUDY    73  51  45 CALM      30.00F
$$

LSZ147-162-121700-
LAKE SUPERIOR

STATION/POSITION TIME  TEMP    WIND        PRES    WAVE
                       AIR SEA DIR/SP/G            HT/PER
                 (UTC) (F)     (DEG/KT/KT) (MB)    (FT/S)
W MID LAKE BUOY  1550   45 39  240/  6/  6 1015.5F   0
PORT WING        1540   61     300/  4/  7 1015.2F
SAXON HARBOR     1540             CALM     1015.9S
$$

LMZ867-665-643>646-121700-
LAKE MICHIGAN

STATION/POSITION TIME  TEMP    WIND        PRES    WAVE
                       AIR SEA DIR/SP/G            HT/PER
                 (UTC) (F)     (DEG/KT/KT) (MB)    (FT/S)
N MID LAKE BUOY  1550   57 55  200/ 12/ 14 1015.1F   2/ 4
NORTHPORT PIER   1500   65     150/  5/  7 1015.6F
KEWAUNEE LAKESHO 1500   54     170/  5/  8 1016.9F
SHEBOYGAN LAKESH 1600   64     150/  9/  9 1016.0F
PORT WASHINGTON  1500   65      CALM  /  1 1016.9F
MILWAUKEE LAKESH 1500   63      90/  2/  3   N/A
S MID LAKE BUOY  1550   63 63  140/  6/  8 1017.5R   1/ 3
KENOSHA   LAKESH 1600   65     170/  9/ 11   N/A
$$

TC  - TEMPERATURE IN CELSIUS
VSB - VISIBILITY IN STATUTE MILES
WCI - WIND CHILL INDEX
HX  - HEAT INDEX




USA.gov is the U.S. government's official web portal to all federal, state and local government web resources and services.